Lid_Strength_Index
0 2 4 5 10 11 14 13 10 9 9 7 6 7 8 8 9 12 2 1 0 0 -1 -1 -1 -1 -2 -2 -1 -2 -1 -1 -1 -2 -2 -2 -2 -2 -2 -2 -3 -3 -2 -2 -2 -2 -2 -2 -2
2 2 6 7 12 15 14 12 10 8 7 6 6 7 8 9 5 4 3 1 -0 -0 -1 -1 -0 -1 -2 -2 -1 -2 -2 -2 -2 -2 -1 -2 -2 -2 -2 -2 -3 -2 -2 -2 -2 -2 -2 -2 -2
3 4 8 9 12 14 13 11 9 8 6 7 8 6 7 8 4 4 1 0 0 -0 -0 -1 -1 -1 -1 -1 -2 -2 -2 -2 -2 -2 -2 -2 -2 -2 -2 -2 -3 -2 -2 -1 -2 -2 -2 -2 -1
6 7 7 11 13 10 11 10 8 8 7 6 7 9 6 3 3 2 1 1 1 0 -0 -0 -1 -1 -2 -2 -1 -2 -2 -2 -2 -2 -2 -2 -2 -2 -3 -2 -2 -3 -2 -1 -2 -2 -2 -1 -1
7 9 11 12 12 10 10 8 7 8 7 7 7 9 8 4 2 1 1 1 1 0 -0 -0 -1 -1 -1 -2 -2 -2 -2 -2 -2 -2 -3 -2 -3 -3 -3 -3 -2 -3 -2 -2 -2 -2 -1 -1 -1
9 10 13 14 13 9 9 7 7 8 7 7 7 8 7 3 2 2 1 1 0 0 -0 -0 1 -0 -1 -1 -2 -2 -2 -2 -2 -2 -3 -3 -3 -3 -3 -3 -2 -2 -2 -2 -2 -2 -2 -1 -1
8 11 13 13 14 10 8 7 8 8 7 7 7 9 6 4 3 2 2 1 1 0 -0 -0 -0 0 1 -0 -0 -1 -1 -2 -2 -2 -2 -2 -2 -3 -2 -2 -3 -3 -3 -2 -3 -2 -2 -1 -1
8 10 12 13 14 12 8 7 6 8 8 6 5 9 9 4 2 2 2 2 1 0 -0 0 -0 -0 -0 -0 1 0 -1 -1 -1 -1 -1 -1 -1 -1 -2 -1 -2 -3 -3 -3 -3 -3 -2 -1 -1
7 13 14 12 12 12 7 8 7 6 6 6 5 6 4 3 2 3 3 3 1 1 0 -0 0 -0 -0 -0 0 1 1 0 -0 0 1 1 0 -0 -0 -0 -1 -2 -2 -2 -2 -2 -2 -1 -1
9 14 13 11 11 9 8 8 7 8 7 7 6 4 3 3 3 4 4 4 3 2 1 0 -0 0 -0 -0 0 0 -0 0 0 0 0 0 0 0 -0 1 -0 -1 -1 -2 -2 -2 -2 -1 0
9 12 10 10 7 7 7 7 7 8 9 7 7 6 4 4 4 4 4 4 3 2 1 1 0 -0 -0 0 0 0 1 1 0 1 0 0 0 1 1 1 1 1 2 1 -0 -0 0 1 1
13 10 9 8 8 7 8 7 8 8 8 6 4 4 4 4 4 4 4 4 4 3 2 2 1 0 -0 -0 0 -0 0 1 2 1 0 1 1 2 2 2 2 2 1 2 2 1 0 0 0
12 12 10 9 8 8 7 8 8 8 6 5 4 4 5 4 4 4 3 3 3 3 2 1 1 2 1 -0 -0 -0 -0 -0 -0 1 0 1 1 2 2 2 2 2 2 2 1 2 1 1 1
11 11 11 10 9 9 8 9 8 7 7 6 5 5 5 4 4 4 3 3 3 2 2 1 1 1 1 1 1 0 -0 -0 -0 -0 0 1 1 1 1 2 2 2 1 1 2 2 2 2 2
11 13 13 12 10 10 10 12 11 7 8 7 6 7 6 5 4 4 3 3 3 2 2 2 1 1 1 1 1 0 0 0 0 -0 -0 0 1 2 1 2 2 2 2 1 2 2 2 2 2
13 14 18 14 11 10 11 16 11 9 8 8 8 7 5 6 5 4 3 3 3 3 2 1 1 1 1 1 1 0 -0 -0 -0 -0 -0 1 1 1 2 2 2 2 2 1 2 2 3 3 3
16 20 17 15 10 11 11 14 10 10 11 9 9 8 7 6 5 4 4 3 3 3 2 2 1 1 1 1 1 1 1 0 -0 -0 -0 0 1 1 1 2 2 2 2 2 2 2 3 3 3
18 16 15 16 12 11 11 12 10 9 11 11 12 11 10 9 7 5 4 3 3 3 2 2 2 2 1 1 1 1 2 1 1 0 -0 0 1 1 1 1 1 1 2 2 3 3 3 3 3
15 16 16 14 11 12 14 13 12 11 11 12 12 11 10 10 9 7 4 4 4 4 4 4 3 2 2 3 2 2 2 2 2 1 0 -0 0 0 1 1 2 2 2 2 2 2 3 3 3
13 17 16 13 11 12 13 14 12 12 12 11 11 12 11 10 10 8 6 6 6 5 5 6 4 3 2 2 2 2 2 2 2 2 2 0 0 0 0 0 1 1 1 1 2 2 3 3 3
12 15 15 14 12 12 13 16 14 12 11 11 10 10 10 9 9 9 8 8 7 6 5 5 4 3 3 2 2 2 2 3 3 3 2 2 1 1 0 0 0 0 1 1 1 2 2 3 2
15 12 12 12 14 19 14 21 16 14 14 12 11 11 11 10 9 8 8 8 8 7 5 5 4 4 2 1 2 2 2 3 3 2 2 2 1 1 1 1 1 0 0 1 1 1 1 2 3
13 11 12 13 15 17 17 20 19 15 16 14 13 11 10 9 9 9 8 8 7 7 6 6 5 5 4 1 1 2 3 3 3 4 3 2 2 1 1 1 1 1 1 0 0 1 2 1 2
10 12 12 13 15 21 17 18 19 16 14 13 13 12 11 10 9 8 8 7 8 6 5 5 5 5 4 4 3 3 3 3 4 4 4 4 2 1 2 1 2 1 1 0 0 0 1 1 1
11 14 21 22 24 23 16 18 17 14 13 13 12 12 11 10 9 8 9 7 6 6 5 5 4 5 5 5 5 4 4 4 4 4 4 4 3 3 2 2 2 2 2 1 0 1 1 1 1
12 13 18 24 22 20 16 20 18 13 11 12 11 11 11 10 10 9 9 7 7 6 6 5 5 5 6 5 4 3 3 4 4 3 3 3 3 3 2 2 2 1 1 0 0 1 1 1 1
13 15 12 16 20 22 19 17 13 12 13 12 12 12 12 11 10 10 9 8 7 7 6 6 7 7 7 7 7 7 7 7 7 6 6 6 7 6 7 6 5 4 3 2 1 1 1 1 1
11 10 16 15 22 25 21 20 18 15 13 12 12 11 11 11 11 10 8 8 7 7 8 8 8 8 8 9 8 8 8 8 8 8 8 8 8 8 8 8 7 7 7 7 6 6 4 3 2
13 14 13 13 16 21 23 21 15 13 13 13 13 12 11 11 10 9 9 9 9 9 9 10 9 10 9 9 9 9 9 9 9 9 9 9 9 9 8 8 8 8 8 7 7 7 7 7 6
10 12 13 17 19 16 16 18 13 13 12 12 12 11 11 10 10 10 10 10 10 11 11 11 11 11 11 11 11 12 12 11 11 11 11 10 10 9 9 8 8 8 8 8 8 8 9 9 8